******** Week 144 almanac for PRN-1 ******** ID: 1 Health: 0 Eccentricity: 0.01124191284 Time of Applicability(s): 61440 Orbital Inclination(rad): 0.986435933 Rate of Right Ascen(r/s): -7.691748963e-09 SQRT(A) (m 1/2): 5153.629395 Right Ascen at Week(rad): -1.283556178 Argument of Perigee(rad): 0.8830755889 Mean Anom(rad): 2.341237804 Af0(s): 0.0003647783691 Af1(s/s): -1.091394e-11 week: 144 ******** Week 144 almanac for PRN-2 ******** ID: 2 Health: 0 Eccentricity: 0.02065992355 Time of Applicability(s): 61440 Orbital Inclination(rad): 0.9647744465 Rate of Right Ascen(r/s): -7.863184676e-09 SQRT(A) (m 1/2): 5153.625 Right Ascen at Week(rad): -1.372088516 Argument of Perigee(rad): -1.45987184 Mean Anom(rad): 2.506910725 Af0(s): -0.0005124985352 Af1(s/s): 0 week: 144 ******** Week 144 almanac for PRN-3 ******** ID: 3 Health: 0 Eccentricity: 0.00385427475 Time of Applicability(s): 61440 Orbital Inclination(rad): 0.9724323662 Rate of Right Ascen(r/s): -7.897471818e-09 SQRT(A) (m 1/2): 5153.650879 Right Ascen at Week(rad): -0.248120269 Argument of Perigee(rad): 0.9802747685 Mean Anom(rad): 1.171500304 Af0(s): -5.652557373e-05 Af1(s/s): -1.455192e-11 week: 144 ******** Week 144 almanac for PRN-4 ******** ID: 4 Health: 0 Eccentricity: 0.001645565033 Time of Applicability(s): 61440 Orbital Inclination(rad): 0.9609215182 Rate of Right Ascen(r/s): -7.863184676e-09 SQRT(A) (m 1/2): 5153.611328 Right Ascen at Week(rad): 0.8327294855 Argument of Perigee(rad): -3.111545581 Mean Anom(rad): -2.113622169 Af0(s): -0.0001545032349 Af1(s/s): 0 week: 144 ******** Week 144 almanac for PRN-5 ******** ID: 5 Health: 0 Eccentricity: 0.005895614624 Time of Applicability(s): 61440 Orbital Inclination(rad): 0.9594055138 Rate of Right Ascen(r/s): -8.034620388e-09 SQRT(A) (m 1/2): 5153.591309 Right Ascen at Week(rad): -0.2880138812 Argument of Perigee(rad): 1.01430023 Mean Anom(rad): -1.297691946 Af0(s): -5.351087646e-05 Af1(s/s): 0 week: 144 ******** Week 144 almanac for PRN-6 ******** ID: 6 Health: 0 Eccentricity: 0.002604007721 Time of Applicability(s): 61440 Orbital Inclination(rad): 0.9858187454 Rate of Right Ascen(r/s): -7.680319916e-09 SQRT(A) (m 1/2): 5153.605957 Right Ascen at Week(rad): -1.291825293 Argument of Perigee(rad): -1.005156641 Mean Anom(rad): 2.714433309 Af0(s): 0.0001311393311 Af1(s/s): 1.091394e-11 week: 144 ******** Week 144 almanac for PRN-7 ******** ID: 7 Health: 0 Eccentricity: 0.01541757584 Time of Applicability(s): 61440 Orbital Inclination(rad): 0.9506690138 Rate of Right Ascen(r/s): -7.897471818e-09 SQRT(A) (m 1/2): 5153.652832 Right Ascen at Week(rad): 1.852303898 Argument of Perigee(rad): -2.296922762 Mean Anom(rad): 1.682073226 Af0(s): 0.0002374074097 Af1(s/s): 3.637979e-12 week: 144 ******** Week 144 almanac for PRN-8 ******** ID: 8 Health: 0 Eccentricity: 0.007098197937 Time of Applicability(s): 61440 Orbital Inclination(rad): 0.9652118707 Rate of Right Ascen(r/s): -7.954617056e-09 SQRT(A) (m 1/2): 5153.655273 Right Ascen at Week(rad): -2.362980933 Argument of Perigee(rad): 0.07572007805 Mean Anom(rad): -1.637113658 Af0(s): -4.069841309e-05 Af1(s/s): 0 week: 144 ******** Week 144 almanac for PRN-9 ******** ID: 9 Health: 0 Eccentricity: 0.00234746933 Time of Applicability(s): 61440 Orbital Inclination(rad): 0.9539407072 Rate of Right Ascen(r/s): -7.954617056e-09 SQRT(A) (m 1/2): 5153.587891 Right Ascen at Week(rad): 0.7800651836 Argument of Perigee(rad): 1.85892331 Mean Anom(rad): -1.313418994 Af0(s): -0.000283381543 Af1(s/s): 0 week: 144 ******** Week 144 almanac for PRN-10 ******** ID: 10 Health: 0 Eccentricity: 0.007422924042 Time of Applicability(s): 61440 Orbital Inclination(rad): 0.9722645871 Rate of Right Ascen(r/s): -7.897471818e-09 SQRT(A) (m 1/2): 5153.627441 Right Ascen at Week(rad): -0.2509193346 Argument of Perigee(rad): -2.540342968 Mean Anom(rad): 0.337982856 Af0(s): -0.0002283633179 Af1(s/s): -1.091394e-11 week: 144 ******** Week 144 almanac for PRN-11 ******** ID: 11 Health: 255 Eccentricity: 0.0003128051758 Time of Applicability(s): 61440 Orbital Inclination(rad): 0.9615387058 Rate of Right Ascen(r/s): -7.931758961e-09 SQRT(A) (m 1/2): 5153.709473 Right Ascen at Week(rad): -1.238911195 Argument of Perigee(rad): 2.804164069 Mean Anom(rad): -1.732061301 Af0(s): -2.185655518e-05 Af1(s/s): -3.637979e-11 week: 144 ******** Week 144 almanac for PRN-12 ******** ID: 12 Health: 0 Eccentricity: 0.008556365967 Time of Applicability(s): 61440 Orbital Inclination(rad): 0.9710781488 Rate of Right Ascen(r/s): -7.931758961e-09 SQRT(A) (m 1/2): 5153.572266 Right Ascen at Week(rad): 2.964588649 Argument of Perigee(rad): 1.23598667 Mean Anom(rad): 1.014685972 Af0(s): -0.0001213415649 Af1(s/s): -7.275958e-12 week: 144 ******** Week 144 almanac for PRN-13 ******** ID: 13 Health: 0 Eccentricity: 0.005787849426 Time of Applicability(s): 61440 Orbital Inclination(rad): 0.9683337613 Rate of Right Ascen(r/s): -7.760323248e-09 SQRT(A) (m 1/2): 5153.625977 Right Ascen at Week(rad): 0.9323352473 Argument of Perigee(rad): 0.9739141411 Mean Anom(rad): -2.261770034 Af0(s): 0.0001921869507 Af1(s/s): 7.275958e-12 week: 144 ******** Week 144 almanac for PRN-14 ******** ID: 14 Health: 0 Eccentricity: 0.001309871674 Time of Applicability(s): 61440 Orbital Inclination(rad): 0.9544799973 Rate of Right Ascen(r/s): -8.091765626e-09 SQRT(A) (m 1/2): 5153.59082 Right Ascen at Week(rad): 2.933890308 Argument of Perigee(rad): 3.047660675 Mean Anom(rad): 1.047565817 Af0(s): -5.426455078e-05 Af1(s/s): -3.637979e-12 week: 144 ******** Week 144 almanac for PRN-15 ******** ID: 15 Health: 0 Eccentricity: 0.01391839981 Time of Applicability(s): 61440 Orbital Inclination(rad): 0.9298404309 Rate of Right Ascen(r/s): -8.217485148e-09 SQRT(A) (m 1/2): 5153.662109 Right Ascen at Week(rad): 0.6749822565 Argument of Perigee(rad): 1.069874077 Mean Anom(rad): -2.654470988 Af0(s): -7.310640869e-05 Af1(s/s): 3.637979e-12 week: 144 ******** Week 144 almanac for PRN-16 ******** ID: 16 Health: 0 Eccentricity: 0.01261425018 Time of Applicability(s): 61440 Orbital Inclination(rad): 0.9710481883 Rate of Right Ascen(r/s): -7.931758961e-09 SQRT(A) (m 1/2): 5153.534668 Right Ascen at Week(rad): 2.983220374 Argument of Perigee(rad): 0.6953857739 Mean Anom(rad): -0.8424277195 Af0(s): -0.0003579953003 Af1(s/s): -3.637979e-12 week: 144 ******** Week 144 almanac for PRN-17 ******** ID: 17 Health: 0 Eccentricity: 0.01373815536 Time of Applicability(s): 61440 Orbital Inclination(rad): 0.9802400888 Rate of Right Ascen(r/s): -7.806039438e-09 SQRT(A) (m 1/2): 5153.691895 Right Ascen at Week(rad): -2.281629767 Argument of Perigee(rad): -1.510931753 Mean Anom(rad): -1.733855939 Af0(s): 0.0004416531494 Af1(s/s): 3.637979e-12 week: 144 ******** Week 144 almanac for PRN-18 ******** ID: 18 Health: 0 Eccentricity: 0.002093315124 Time of Applicability(s): 61440 Orbital Inclination(rad): 0.9702272688 Rate of Right Ascen(r/s): -7.828897533e-09 SQRT(A) (m 1/2): 5153.583984 Right Ascen at Week(rad): -1.275190065 Argument of Perigee(rad): 3.103678312 Mean Anom(rad): 2.533349798 Af0(s): 0.0002087677856 Af1(s/s): -7.275958e-12 week: 144 ******** Week 144 almanac for PRN-19 ******** ID: 19 Health: 0 Eccentricity: 0.008920669556 Time of Applicability(s): 61440 Orbital Inclination(rad): 0.9789398004 Rate of Right Ascen(r/s): -7.817468486e-09 SQRT(A) (m 1/2): 5153.631836 Right Ascen at Week(rad): -2.236703904 Argument of Perigee(rad): 1.994472384 Mean Anom(rad): 0.6610292482 Af0(s): 8.139682617e-05 Af1(s/s): 3.637979e-12 week: 144 ******** Week 144 almanac for PRN-20 ******** ID: 20 Health: 0 Eccentricity: 0.005323886871 Time of Applicability(s): 61440 Orbital Inclination(rad): 0.9415550108 Rate of Right Ascen(r/s): -8.206056101e-09 SQRT(A) (m 1/2): 5153.664062 Right Ascen at Week(rad): -0.4013239787 Argument of Perigee(rad): 3.095799433 Mean Anom(rad): -2.87302992 Af0(s): 0.0004084914795 Af1(s/s): 0 week: 144 ******** Week 144 almanac for PRN-21 ******** ID: 21 Health: 0 Eccentricity: 0.02448654175 Time of Applicability(s): 61440 Orbital Inclination(rad): 0.9590160264 Rate of Right Ascen(r/s): -7.886042771e-09 SQRT(A) (m 1/2): 5153.549805 Right Ascen at Week(rad): -1.373485427 Argument of Perigee(rad): -1.029361779 Mean Anom(rad): -1.579999089 Af0(s): 0.0001228489136 Af1(s/s): 0 week: 144 ******** Week 144 almanac for PRN-22 ******** ID: 22 Health: 255 Eccentricity: 0.006872177124 Time of Applicability(s): 61440 Orbital Inclination(rad): 0.9383012937 Rate of Right Ascen(r/s): -8.217485148e-09 SQRT(A) (m 1/2): 5153.578125 Right Ascen at Week(rad): -0.3555240162 Argument of Perigee(rad): -0.8597924869 Mean Anom(rad): -2.843125159 Af0(s): -0.0003331240478 Af1(s/s): 7.275958e-12 week: 144 ******** Week 144 almanac for PRN-23 ******** ID: 23 Health: 0 Eccentricity: 0.00195646286 Time of Applicability(s): 61440 Orbital Inclination(rad): 0.967303118 Rate of Right Ascen(r/s): -7.954617056e-09 SQRT(A) (m 1/2): 5153.64502 Right Ascen at Week(rad): -0.2755791243 Argument of Perigee(rad): 2.905289955 Mean Anom(rad): 1.692686006 Af0(s): 1.055144043e-05 Af1(s/s): -3.637979e-12 week: 144 ******** Week 144 almanac for PRN-24 ******** ID: 24 Health: 0 Eccentricity: 0.01226091385 Time of Applicability(s): 61440 Orbital Inclination(rad): 0.9341187992 Rate of Right Ascen(r/s): -8.057478483e-09 SQRT(A) (m 1/2): 5153.643066 Right Ascen at Week(rad): 1.770160275 Argument of Perigee(rad): 0.799692348 Mean Anom(rad): 2.648757135 Af0(s): 0.0002193192261 Af1(s/s): 0 week: 144 ******** Week 144 almanac for PRN-25 ******** ID: 25 Health: 0 Eccentricity: 0.01033592224 Time of Applicability(s): 61440 Orbital Inclination(rad): 0.95845876 Rate of Right Ascen(r/s): -8.046049436e-09 SQRT(A) (m 1/2): 5153.673828 Right Ascen at Week(rad): 2.888347257 Argument of Perigee(rad): 0.9704993861 Mean Anom(rad): 0.7876497 Af0(s): 0.0002117824829 Af1(s/s): 7.275958e-12 week: 144 ******** Week 144 almanac for PRN-26 ******** ID: 26 Health: 0 Eccentricity: 0.006749153137 Time of Applicability(s): 61440 Orbital Inclination(rad): 0.9393019765 Rate of Right Ascen(r/s): -8.251772291e-09 SQRT(A) (m 1/2): 5153.623535 Right Ascen at Week(rad): 2.84206493 Argument of Perigee(rad): 0.3451951123 Mean Anom(rad): 0.1397986051 Af0(s): 0.0001364150513 Af1(s/s): 3.637979e-12 week: 144 ******** Week 144 almanac for PRN-27 ******** ID: 27 Health: 0 Eccentricity: 0.009984493256 Time of Applicability(s): 61440 Orbital Inclination(rad): 0.9738884496 Rate of Right Ascen(r/s): -7.874613723e-09 SQRT(A) (m 1/2): 5153.602051 Right Ascen at Week(rad): -2.34385411 Argument of Perigee(rad): 0.6282834771 Mean Anom(rad): -1.714567329 Af0(s): 4.59741333e-05 Af1(s/s): 2.182787e-11 week: 144 ******** Week 144 almanac for PRN-29 ******** ID: 29 Health: 0 Eccentricity: 0.001754760742 Time of Applicability(s): 61440 Orbital Inclination(rad): 0.982223478 Rate of Right Ascen(r/s): -7.794610391e-09 SQRT(A) (m 1/2): 5153.722656 Right Ascen at Week(rad): -2.268696167 Argument of Perigee(rad): 2.300166742 Mean Anom(rad): -1.613184905 Af0(s): -0.0003677930664 Af1(s/s): -3.637979e-12 week: 144 ******** Week 144 almanac for PRN-30 ******** ID: 30 Health: 0 Eccentricity: 0.00540971756 Time of Applicability(s): 61440 Orbital Inclination(rad): 0.9358505197 Rate of Right Ascen(r/s): -8.046049436e-09 SQRT(A) (m 1/2): 5153.539062 Right Ascen at Week(rad): 1.866011604 Argument of Perigee(rad): -2.753133742 Mean Anom(rad): 1.6908674 Af0(s): -0.0003994473877 Af1(s/s): -3.637979e-12 week: 144 ******** Week 144 almanac for PRN-31 ******** ID: 31 Health: 0 Eccentricity: 0.01045942307 Time of Applicability(s): 61440 Orbital Inclination(rad): 0.9549174215 Rate of Right Ascen(r/s): -7.840326581e-09 SQRT(A) (m 1/2): 5153.620117 Right Ascen at Week(rad): 1.870255518 Argument of Perigee(rad): 0.3641155819 Mean Anom(rad): 1.230372809 Af0(s): -0.0001258636108 Af1(s/s): 0 week: 144 ******** Week 144 almanac for PRN-32 ******** ID: 32 Health: 0 Eccentricity: 0.005399227142 Time of Applicability(s): 61440 Orbital Inclination(rad): 0.9577996276 Rate of Right Ascen(r/s): -7.897471818e-09 SQRT(A) (m 1/2): 5153.708008 Right Ascen at Week(rad): 0.7911056508 Argument of Perigee(rad): -2.378340964 Mean Anom(rad): -1.02569573 Af0(s): -3.768371582e-05 Af1(s/s): -7.275958e-12 week: 144